Flight Track Log - Related Links

Times and Time Zones

All times are in EDT time to prevent confusion due to time zone crossing. See the UAL4108 flight status page for this flight to view local times or setup timezone preferences in your user account.

Time Position Orientation Groundspeed Altitude Reporting Facility
EDT Latitude Longitude Course Direction KTS MPH feet Rate Location/Type
Thu 08:55:13 PM 34.7136 -92.2494 244° Southwest 168 193 1,000  Level Memphis Center
Thu 08:56:07 PM 34.6858 -92.2867 228° Southwest 185 213 2,900 2,035 Climbing Memphis Center
Thu 08:57:08 PM 34.6556 -92.3542 241° Southwest 237 273 4,900 2,451 Climbing Memphis Center
Thu 08:58:00 PM 34.5308 -92.5735 246° West  Level FlightAware Approximate
Thu 08:58:29 PM 34.6247 -92.4494 249° West 246 283 8,700  Level Memphis Center
Thu 08:59:00 PM 34.4871 -92.6938 246° West  Level FlightAware Approximate
Thu 08:59:30 PM 34.5986 -92.5169 245° Southwest 233 268 10,200  Level Memphis Center
Thu 09:00:00 PM 34.4499 -92.8169 244° Southwest  Level FlightAware Approximate
Thu 09:00:29 PM 34.5700 -92.5994 247° West 239 275 11,300  Level Memphis Center
Thu 09:01:29 PM 34.5392 -92.6842 246° West 265 305 13,100 2,000 Climbing Memphis Center
Thu 09:02:29 PM 34.5083 -92.7667 246° West 270 311 15,300 2,400 Climbing Memphis Center
Thu 09:03:29 PM 34.4819 -92.8364 245° Southwest 264 304 17,900 1,850 Climbing Memphis Center
Thu 09:04:29 PM 34.4556 -92.9111 247° West 250 288 19,000 900 Climbing Memphis Center
Thu 09:05:29 PM 34.4267 -92.9908 246° West 255 293 19,700 700 Climbing Memphis Center
Thu 09:06:29 PM 34.3914 -93.0806 245° Southwest 276 318 20,400 861 Climbing Memphis Center
Thu 09:08:51 PM 34.3108 -93.3078 247° West 315 362 22,600 1,040 Climbing Fort Worth Center
Thu 09:09:51 PM 34.2742 -93.4050 245° Southwest 320 368 23,900 1,150 Climbing Fort Worth Center
Thu 09:10:51 PM 34.2375 -93.4997 245° Southwest 320 368 24,900 1,000 Climbing Fort Worth Center
Thu 09:11:51 PM 34.2008 -93.5967 245° Southwest 320 368 25,900 950 Climbing Fort Worth Center
Thu 09:12:51 PM 34.1664 -93.6936 247° West 320 368 26,800 1,050 Climbing Fort Worth Center
Thu 09:13:51 PM 34.1256 -93.8008 245° Southwest 320 368 28,000 600 Climbing Fort Worth Center
Thu 09:14:51 PM 34.0886 -93.8950 245° Southwest 320 368 28,000  Level Fort Worth Center
Thu 09:15:51 PM 34.0517 -93.9967 246° West 320 368 28,000  Level Fort Worth Center
Thu 09:16:51 PM 34.0128 -94.0986 245° Southwest 325 374 28,000  Level Fort Worth Center
Thu 09:17:51 PM 33.9717 -94.2028 245° Southwest 331 381 28,000  Level Fort Worth Center
Thu 09:18:51 PM 33.9306 -94.3094 245° Southwest 342 394 28,000  Level Fort Worth Center
Thu 09:19:51 PM 33.8892 -94.4136 244° Southwest 342 394 28,000  Level Fort Worth Center
Thu 09:20:51 PM 33.8500 -94.5175 246° West 347 399 28,000  Level Fort Worth Center
Thu 09:21:51 PM 33.8064 -94.6239 244° Southwest 347 399 28,000  Level Fort Worth Center
Thu 09:22:51 PM 33.7669 -94.7275 245° Southwest 347 399 28,000  Level Fort Worth Center
Thu 09:23:51 PM 33.7253 -94.8361 245° Southwest 347 399 28,000  Level Fort Worth Center
Thu 09:24:51 PM 33.6836 -94.9372 244° Southwest 347 399 28,000  Level Fort Worth Center
Thu 09:25:51 PM 33.6419 -95.0431 245° Southwest 347 399 28,000  Level Fort Worth Center
Thu 09:26:51 PM 33.6042 -95.1464 246° West 347 399 28,000  Level Fort Worth Center
Thu 09:27:51 PM 33.5619 -95.2497 244° Southwest 347 399 28,000  Level Fort Worth Center
Thu 09:28:51 PM 33.5222 -95.3553 246° West 347 399 28,000  Level Fort Worth Center
Thu 09:29:51 PM 33.4758 -95.4611 242° Southwest 347 399 28,000  Level Fort Worth Center
Thu 09:30:51 PM 33.4336 -95.5667 244° Southwest 347 399 28,000  Level Fort Worth Center
Thu 09:31:51 PM 33.3975 -95.6692 247° West 347 399 28,000  Level Fort Worth Center
Thu 09:32:51 PM 33.3611 -95.7644 245° Southwest 341 392 28,000  Level Fort Worth Center
Thu 09:33:51 PM 33.3167 -95.8697 243° Southwest 351 404 28,000  Level Fort Worth Center
Thu 09:34:51 PM 33.2719 -95.9772 244° Southwest 351 404 28,000  Level Fort Worth Center
Thu 09:35:51 PM 33.2314 -96.0822 245° Southwest 351 404 28,000  Level Fort Worth Center
Thu 09:36:51 PM 33.1864 -96.1847 242° Southwest 351 404 28,000  Level Fort Worth Center
Thu 09:37:51 PM 33.1436 -96.2919 245° Southwest 346 398 28,000  Level Fort Worth Center
Thu 09:38:51 PM 33.0967 -96.4067 244° Southwest 352 405 28,000  Level Fort Worth Center
Thu 09:39:51 PM 33.0536 -96.5111 244° Southwest 352 405 28,000  Level Fort Worth Center
Thu 09:40:51 PM 33.0103 -96.6183 244° Southwest 352 405 28,000  Level Fort Worth Center
Thu 09:41:51 PM 32.9672 -96.7200 243° Southwest 352 405 28,000  Level Fort Worth Center
Thu 09:42:51 PM 32.9239 -96.8244 244° Southwest 352 405 28,000  Level Fort Worth Center
Thu 09:43:51 PM 32.8636 -96.9139 231° Southwest 346 398 28,000  Level Fort Worth Center
Thu 09:44:51 PM 32.7614 -96.8797 164° South 309 356 28,000  Level Fort Worth Center
Thu 09:45:51 PM 32.6650 -96.8408 161° South 354 407 28,000  Level Fort Worth Center
Thu 09:46:51 PM 32.5542 -96.8094 167° South 392 451 28,000  Level Fort Worth Center
Thu 09:47:51 PM 32.4414 -96.7758 166° South 410 472 28,000  Level Fort Worth Center
Thu 09:48:51 PM 32.3328 -96.7447 166° South 410 472 28,000  Level Fort Worth Center
Thu 09:49:51 PM 32.2239 -96.7111 165° South 405 466 28,000  Level Fort Worth Center
Thu 09:50:51 PM 32.1047 -96.6653 162° South 410 472 28,000  Level Fort Worth Center
Thu 09:51:51 PM 31.9958 -96.6197 160° South 410 472 28,000  Level Fort Worth Center
Thu 09:52:51 PM 31.8892 -96.5742 160° South 410 472 28,000  Level Fort Worth Center
Thu 09:53:51 PM 31.7781 -96.5286 161° South 418 481 28,000  Level Fort Worth Center
Thu 09:56:05 PM 31.5428 -96.4286 160° South 420 483 28,000  Level Houston Center
Thu 09:57:07 PM 31.4311 -96.3825 161° South 420 483 28,000  Level Houston Center
Thu 09:58:08 PM 31.3214 -96.3253 156° South 427 491 28,000 -537 Level Houston Center
Thu 09:59:10 PM 31.2136 -96.2681 156° South 420 483 26,900 -1,355 Descending Houston Center
Thu 10:00:12 PM 31.1106 -96.2114 155° Southeast 408 470 25,200 -1,805 Descending Houston Center
Thu 10:01:13 PM 30.9972 -96.1514 156° South 434 499 23,200 -2,049 Descending Houston Center
Thu 10:02:15 PM 30.8875 -96.0931 155° Southeast 429 494 21,000 -2,244 Descending Houston Center
Thu 10:03:16 PM 30.7731 -96.0322 155° Southeast 407 468 18,600 -2,195 Descending Houston Center
Thu 10:04:18 PM 30.6725 -95.9786 155° Southeast 400 460 16,500 -2,250 Descending Houston Center
Thu 10:04:36 PM 30.6358 -95.9606 157° South 395 455 15,600 -2,613 Descending Houston Center
Thu 10:05:20 PM 30.5650 -95.9214 155° Southeast 386 444 13,800 -2,418 Descending Houston Center
Thu 10:05:43 PM 30.5258 -95.9031 158° South 381 438 12,900 -1,672 Descending Houston Center
Thu 10:06:21 PM 30.4692 -95.8694 153° Southeast 380 437 12,100 -885 Descending Houston Center
Thu 10:06:44 PM 30.4325 -95.8411 146° Southeast 381 438 12,000 -387 Descending Houston Center
Thu 10:07:23 PM 30.3867 -95.7931 138° Southeast 381 438 11,700 -909 Descending Houston Center
Thu 10:07:50 PM 30.3514 -95.7561 138° Southeast 340 391 11,000 -1,475 Descending Houston Center
Thu 10:08:24 PM 30.3192 -95.7222 138° Southeast 338 389 10,200 -1,770 Descending Houston Center
Thu 10:08:51 PM 30.2867 -95.6889 138° Southeast 290 334 9,200 -1,839 Descending Houston Center
Thu 10:09:26 PM 30.2592 -95.6600 138° Southeast 293 337 8,300 -1,770 Descending Houston Center
Thu 10:09:52 PM 30.2244 -95.6261 140° Southeast 288 331 7,400 -1,475 Descending Houston Center
Thu 10:10:27 PM 30.2006 -95.5989 135° Southeast 286 329 6,800 -1,180 Descending Houston Center
Thu 10:10:53 PM 30.1667 -95.5653 139° Southeast 285 328 6,200 -774 Descending Houston Center
Thu 10:11:29 PM 30.1403 -95.5361 136° Southeast 288 331 6,000 -218 Descending Houston Center
Thu 10:11:48 PM 30.1125 -95.5017 133° Southeast 296 341 6,000  Level Houston Center
Thu 10:12:31 PM 30.1047 -95.4533 101° East 303 349 6,000  Level Houston Center
Thu 10:12:48 PM 30.1061 -95.4081 88° East 290 334 6,000 -98 Level Houston Center
Thu 10:13:32 PM 30.1058 -95.3422 90° East 289 333 5,900 -197 Descending Houston Center
Thu 10:13:49 PM 30.1061 -95.3142 89° East 288 331 5,800 -1,452 Descending Houston Center
Thu 10:14:34 PM 30.1056 -95.2511 91° East 285 328 4,400 -1,701 Descending Houston Center
Thu 10:14:56 PM 30.1056 -95.2175 90° East 271 312 3,900 -1,279 Descending Houston Center
Thu 10:15:35 PM 30.0939 -95.1697 106° East 271 312 3,100 -885 Descending Houston Center
Thu 10:15:57 PM 30.0761 -95.1486 134° Southeast 241 277 3,000 -484 Descending Houston Center
Thu 10:16:37 PM 30.0406 -95.1372 165° South 236 272 2,600 -787 Descending Houston Center
Thu 10:16:58 PM 30.0125 -95.1444 193° South 217 250 2,200 -590 Descending Houston Center
Thu 10:17:38 PM 29.9956 -95.1703 233° Southwest 216 249 2,000 -109 Descending Houston Center
Thu 10:17:53 PM 29.9936 -95.1878 263° West 170 196 2,100 -194 Climbing Houston Center
Thu 10:18:40 PM 29.9933 -95.2247 270° West 187 215 1,800 -611 Descending Houston Center
Thu 10:19:41 PM 29.9936 -95.2708 270° West 165 190 1,000 -732 Descending Houston Center
Thu 10:20:43 PM 29.9939 -95.3119 270° West 146 168 300 -677 Descending Houston Center

Login

Don't have an account? Register now (free) for customized features, flight alerts, and more!